Location: Unspecified
(48.2082°N, 0.0000°E)
Time: 14:28:13
(UTC+00:00)

S-56A Canister/Altair - Pass Details

Date: 29 June 2019
Orbit: 633 x 2499 km, 38.9° (Epoch: 19 August)

Event Time Altitude Azimuth Distance (km) Brightness Sun altitude
Rises 13:44:19 0° 233° (SW) 5,945 12.5 58.0°
Reaches altitude 10° 13:48:47 10° 227° (SW) 4,746 12.3 57.4°
Maximum altitude 14:00:11 41° 165° (SSE) 2,367 10.8 56.0°
Drops below altitude 10° 14:08:15 10° 99° (E) 3,376 10.7 54.9°
Sets 14:10:53 0° 92° (E) 4,115 11.0 54.5°
